AEROCUBE 15A (45118 NORAD) Tracking and Keplerian Element Data

This shows tracking and keplerian element data for the satellite.

Feedback or suggestion? Click here.




ElementValue
Catalog45118
NameAEROCUBE 15A
Epoch Orbit324
Epoch Day52.93160802
Epoch Year2020
RAAN206.1934
Inclination51.6415
Eccentricity0.0011493
Argument of Perigee358.8818
Mean Anonmoly1.2136
Mean Motion15.33193176
Decay Rate1.707E-05
L11 45118U 19071H 20052.93160802 .00001707 00000-0 63958-4 0 9995
L22 45118 51.6415 206.1934 0011493 358.8818 1.2136 15.33193176 3248

Live tracking and technical data element details for AEROCUBE 15A (NORAD 45118). AEROCUBE 15A can be tracked NOW for your location showing map with azimuth and elevation plus other details from your city location.

Track the satellite on the map from your city or location and see movement details for azimuth, elevation, latitude, longitude, range, height, and movement on the map or in text.







IsCatalogInMostPopularTable: catalog: 45118, numindb: 6
Update: records affected: 1



GetName: 45118 AEROCUBE 15A

Hit Count: updated at: Wed, 26 Feb 2020 17:23:43 GMT